Partly cloudy
Partly cloudy
Mostly cloudy
Mostly cloudy
Mostly cloudy
Mostly cloudy
Partly cloudy
(°C)
13°
13°
13°
13°
13°
13°
14°
14°
14°
14°
15°
15°
15°
15°
(°C)
12°
12°
13°
13°
14°
14°
14°
W
W
W
WSW
WSW
WSW
SW
(km/h)
6-17
6-16
6-16
5-15
5-15
6-16
7-16
(mm)
0
0
0
0
0
0
0
(%)
0
0
0
0
0
0
0

Sun elevation

/ -24.6°
sun-icon
UV 4
06:08
19:34
Waning gibbous moon (197°)
21:41
06:56

METAR for Marina del Rey (KSMO)

Time Conditions Temperature/
Dewpoint
Wind Visibility Weather Clouds Pressure Change Raw
MVFR 13.9°C / 11.1°C 230º 6kt >10km - Overcast 2500ft 1016 - KSMO 250951Z AUTO 23006KT 10SM OVC025 14/11 A3003 RMK AO2 SLP168 T01390111
MVFR 13.9°C / 11.1°C 230º 5kt >10km - Broken Clouds 2400ft 1017 - KSMO 250851Z AUTO 23005KT 10SM BKN024 14/11 A3005 RMK AO2 SLP174 T01390111 58004
VFR 13.9°C / 11.1°C 250º 5kt >10km - Clear 1017 - KSMO 250751Z AUTO 25005KT 10SM CLR 14/11 A3006 RMK AO2 SLP178 T01390111 401830133
VFR 14.4°C / 11.1°C 230º 4kt >10km - Broken Clouds 4600ft 1017 - KSMO 250651Z AUTO 23004KT 10SM BKN046 14/11 A3006 RMK AO2 SLP178 T01440111
VFR 14.4°C / 11.7°C 250º 7kt >10km - Broken Clouds 4100ft
Overcast 6000ft
1017 - KSMO 250551Z AUTO 25007KT 10SM BKN041 OVC060 14/12 A3006 RMK AO2 SLP179 T01440117 10172 20144 50013
VFR 15°C / 11.7°C 250º 6kt >10km - Overcast 4200ft 1017 - KSMO 250451Z AUTO 25006KT 10SM OVC042 15/12 A3006 RMK AO2 SLP179 T01500117
VFR 15.6°C / 10.6°C 250º 8kt >10km - Overcast 4700ft 1017 - KSMO 250351Z AUTO 25008KT 10SM OVC047 16/11 A3005 RMK AO2 SLP174 T01560106
VFR 15.6°C / 11.1°C 5kt >10km - Few Clouds 5500ft 1016 - KSMO 250251Z VRB05KT 10SM FEW055 16/11 A3002 RMK AO2 SLP166 T01560111 58002
VFR 15.6°C / 11.7°C 220º 8kt Gust 15kt >10km - Clear 1016 - KSMO 250151Z 22008G15KT 10SM CLR 16/12 A3002 RMK AO2 SLP166 T01560117
VFR 16.7°C / 10.6°C 220º 11kt >10km - Clear 1016 - KSMO 250051Z 22011KT 10SM CLR 17/11 A3003 RMK AO2 SLP168 T01670106
VFR 17.2°C / 10.6°C 220º 11kt >10km - Clear 1016 - KSMO 242351Z 22011KT 10SM CLR 17/11 A3003 RMK AO2 SLP168 T01720106 10183 20167 56011
VFR 17.2°C / 10.6°C 210º variable 190º to 260º 8kt >10km - Clear 1016 - KSMO 242251Z 21008KT 190V260 10SM CLR 17/11 A3003 RMK AO2 SLP169 T01720106
VFR 17.8°C / 11.1°C 220º 9kt >10km - Few Clouds 1800ft 1017 - KSMO 242151Z 22009KT 10SM FEW018 18/11 A3006 RMK AO2 SLP177 T01780111
VFR 17.2°C / 10.6°C 220º 11kt >10km - Clear 1017 - KSMO 242051Z 22011KT 10SM CLR 17/11 A3006 RMK AO2 SLP179 T01720106 56007
VFR 17.8°C / 10.6°C 230º 8kt >10km - Clear 1017 - KSMO 241951Z 23008KT 10SM CLR 18/11 A3006 RMK AO2 SLP179 T01780106
VFR 16.7°C / 11.1°C 220º 8kt >10km - Clear 1018 - KSMO 241851Z 22008KT 10SM CLR 17/11 A3008 RMK AO2 SLP184 T01670111
VFR 17.2°C / 11.7°C 210º 9kt >10km - Clear 1018 - KSMO 241751Z 21009KT 10SM CLR 17/12 A3008 RMK AO2 SLP186 T01720117 10178 20133 53005
VFR 17.2°C / 11.1°C 190º 6kt >10km - Broken Clouds 3800ft 1018 - KSMO 241651Z COR 19006KT 10SM BKN038 17/11 A3006 RMK AO2 SLP180 T01720111
VFR 16.7°C / 11.1°C 160º 4kt >10km - Broken Clouds 3800ft 1018 - KSMO 241551Z 16004KT 10SM BKN038 17/11 A3007 RMK AO2 SLP182 T01670111
VFR 15.6°C / 11.7°C 160º 3kt >10km - Broken Clouds 3700ft 1018 - KSMO 241451Z 16003KT 10SM BKN037 16/12 A3007 RMK AO2 SLP181 T01560117 53008
VFR 14.4°C / 11.7°C >10km - Broken Clouds 3700ft 1017 - KSMO 241351Z 10SM BKN037 14/12 A3006 RMK AO2 SLP177 T01440117
VFR 13.9°C / 11.7°C variable 0kt >10km - Scattered Clouds 3800ft 1017 - KSMO 241251Z AUTO 00000KT 10SM SCT038 14/12 A3004 RMK AO2 SLP172 T01390117
VFR 14.4°C / 11.7°C 70º 3kt >10km - Overcast 3700ft 1017 - KSMO 241151Z AUTO 07003KT 10SM OVC037 14/12 A3004 RMK AO2 SLP173 T01440117 10156 20139 56001
VFR 14.4°C / 11.7°C 100º 3kt >10km - Overcast 3700ft 1017 - KSMO 241051Z AUTO 10003KT 10SM OVC037 14/12 A3005 RMK AO2 SLP173 T01440117

MVFR

13.9°C / 11.1°C

[More]
Wind 230º 6kt
Visibility >10km
Weather -
Clouds Overcast 2500ft
Pressure 1016
Change -
Raw KSMO 250951Z AUTO 23006KT 10SM OVC025 14/11 A3003 RMK AO2 SLP168 T01390111

MVFR

13.9°C / 11.1°C

[More]
Wind 230º 5kt
Visibility >10km
Weather -
Clouds Broken Clouds 2400ft
Pressure 1017
Change -
Raw KSMO 250851Z AUTO 23005KT 10SM BKN024 14/11 A3005 RMK AO2 SLP174 T01390111 58004

VFR

13.9°C / 11.1°C

[More]
Wind 250º 5kt
Visibility >10km
Weather -
Clouds Clear
Pressure 1017
Change -
Raw KSMO 250751Z AUTO 25005KT 10SM CLR 14/11 A3006 RMK AO2 SLP178 T01390111 401830133

VFR

14.4°C / 11.1°C

[More]
Wind 230º 4kt
Visibility >10km
Weather -
Clouds Broken Clouds 4600ft
Pressure 1017
Change -
Raw KSMO 250651Z AUTO 23004KT 10SM BKN046 14/11 A3006 RMK AO2 SLP178 T01440111

VFR

14.4°C / 11.7°C

[More]
Wind 250º 7kt
Visibility >10km
Weather -
Clouds Broken Clouds 4100ft
Overcast 6000ft
Pressure 1017
Change -
Raw KSMO 250551Z AUTO 25007KT 10SM BKN041 OVC060 14/12 A3006 RMK AO2 SLP179 T01440117 10172 20144 50013

VFR

15°C / 11.7°C

[More]
Wind 250º 6kt
Visibility >10km
Weather -
Clouds Overcast 4200ft
Pressure 1017
Change -
Raw KSMO 250451Z AUTO 25006KT 10SM OVC042 15/12 A3006 RMK AO2 SLP179 T01500117

VFR

15.6°C / 10.6°C

[More]
Wind 250º 8kt
Visibility >10km
Weather -
Clouds Overcast 4700ft
Pressure 1017
Change -
Raw KSMO 250351Z AUTO 25008KT 10SM OVC047 16/11 A3005 RMK AO2 SLP174 T01560106

VFR

15.6°C / 11.1°C

[More]
Wind 5kt
Visibility >10km
Weather -
Clouds Few Clouds 5500ft
Pressure 1016
Change -
Raw KSMO 250251Z VRB05KT 10SM FEW055 16/11 A3002 RMK AO2 SLP166 T01560111 58002

VFR

15.6°C / 11.7°C

[More]
Wind 220º 8kt Gust 15kt
Visibility >10km
Weather -
Clouds Clear
Pressure 1016
Change -
Raw KSMO 250151Z 22008G15KT 10SM CLR 16/12 A3002 RMK AO2 SLP166 T01560117

VFR

16.7°C / 10.6°C

[More]
Wind 220º 11kt
Visibility >10km
Weather -
Clouds Clear
Pressure 1016
Change -
Raw KSMO 250051Z 22011KT 10SM CLR 17/11 A3003 RMK AO2 SLP168 T01670106

VFR

17.2°C / 10.6°C

[More]
Wind 220º 11kt
Visibility >10km
Weather -
Clouds Clear
Pressure 1016
Change -
Raw KSMO 242351Z 22011KT 10SM CLR 17/11 A3003 RMK AO2 SLP168 T01720106 10183 20167 56011

VFR

17.2°C / 10.6°C

[More]
Wind 210º variable 190º to 260º 8kt
Visibility >10km
Weather -
Clouds Clear
Pressure 1016
Change -
Raw KSMO 242251Z 21008KT 190V260 10SM CLR 17/11 A3003 RMK AO2 SLP169 T01720106

VFR

17.8°C / 11.1°C

[More]
Wind 220º 9kt
Visibility >10km
Weather -
Clouds Few Clouds 1800ft
Pressure 1017
Change -
Raw KSMO 242151Z 22009KT 10SM FEW018 18/11 A3006 RMK AO2 SLP177 T01780111

VFR

17.2°C / 10.6°C

[More]
Wind 220º 11kt
Visibility >10km
Weather -
Clouds Clear
Pressure 1017
Change -
Raw KSMO 242051Z 22011KT 10SM CLR 17/11 A3006 RMK AO2 SLP179 T01720106 56007

VFR

17.8°C / 10.6°C

[More]
Wind 230º 8kt
Visibility >10km
Weather -
Clouds Clear
Pressure 1017
Change -
Raw KSMO 241951Z 23008KT 10SM CLR 18/11 A3006 RMK AO2 SLP179 T01780106

VFR

16.7°C / 11.1°C

[More]
Wind 220º 8kt
Visibility >10km
Weather -
Clouds Clear
Pressure 1018
Change -
Raw KSMO 241851Z 22008KT 10SM CLR 17/11 A3008 RMK AO2 SLP184 T01670111

VFR

17.2°C / 11.7°C

[More]
Wind 210º 9kt
Visibility >10km
Weather -
Clouds Clear
Pressure 1018
Change -
Raw KSMO 241751Z 21009KT 10SM CLR 17/12 A3008 RMK AO2 SLP186 T01720117 10178 20133 53005

VFR

17.2°C / 11.1°C

[More]
Wind 190º 6kt
Visibility >10km
Weather -
Clouds Broken Clouds 3800ft
Pressure 1018
Change -
Raw KSMO 241651Z COR 19006KT 10SM BKN038 17/11 A3006 RMK AO2 SLP180 T01720111

VFR

16.7°C / 11.1°C

[More]
Wind 160º 4kt
Visibility >10km
Weather -
Clouds Broken Clouds 3800ft
Pressure 1018
Change -
Raw KSMO 241551Z 16004KT 10SM BKN038 17/11 A3007 RMK AO2 SLP182 T01670111

VFR

15.6°C / 11.7°C

[More]
Wind 160º 3kt
Visibility >10km
Weather -
Clouds Broken Clouds 3700ft
Pressure 1018
Change -
Raw KSMO 241451Z 16003KT 10SM BKN037 16/12 A3007 RMK AO2 SLP181 T01560117 53008

VFR

14.4°C / 11.7°C

[More]
Wind
Visibility >10km
Weather -
Clouds Broken Clouds 3700ft
Pressure 1017
Change -
Raw KSMO 241351Z 10SM BKN037 14/12 A3006 RMK AO2 SLP177 T01440117

VFR

13.9°C / 11.7°C

[More]
Wind variable 0kt
Visibility >10km
Weather -
Clouds Scattered Clouds 3800ft
Pressure 1017
Change -
Raw KSMO 241251Z AUTO 00000KT 10SM SCT038 14/12 A3004 RMK AO2 SLP172 T01390117

VFR

14.4°C / 11.7°C

[More]
Wind 70º 3kt
Visibility >10km
Weather -
Clouds Overcast 3700ft
Pressure 1017
Change -
Raw KSMO 241151Z AUTO 07003KT 10SM OVC037 14/12 A3004 RMK AO2 SLP173 T01440117 10156 20139 56001

VFR

14.4°C / 11.7°C

[More]
Wind 100º 3kt
Visibility >10km
Weather -
Clouds Overcast 3700ft
Pressure 1017
Change -
Raw KSMO 241051Z AUTO 10003KT 10SM OVC037 14/12 A3005 RMK AO2 SLP173 T01440117

TAF for Marina del Rey (KSMO)

From till


From till Wind 250º 6kt. Visibility 9700m. Broken Clouds 2500ft. Broken Clouds 4000ft.
From till Wind 3kt. Visibility 9700m. Broken Clouds 4000ft.
From till Wind 220º 10kt. Visibility 9700m. Scattered Clouds 4000ft.
From till Wind 220º 5kt. Visibility 9700m. Broken Clouds 5000ft.

Raw: KSMO 250856Z 2509/2606 25006KT P6SM BKN025 BKN040 FM251400 VRB03KT P6SM BKN040 FM251800 22010KT P6SM SCT040 FM260400 22005KT P6SM BKN050

rainNOW: Rain nowcast for Marina del Rey and surroundings (25km radius)

0.0 mm
0.0 mm
0.0 mm
0.0 mm
0.0 mm
0.0 mm
0.0 mm
0.0 mm
0.0 mm
0.0 mm
0.0 mm
0.0 mm

Radar and precipitation nowcast for Marina del Rey

Drizzle
Light
Moderate
Heavy
Very Heavy
Hail

The location marker is placed on Marina del Rey. This animation shows the precipitation radar for the selected time range, as well as a 1h forecast. Orange crosses indicate lightning. Data provided by nowcast.de (available in USA, Europe, Australia). Drizzle or light snow fall might be invisible for the radar. Precipitation intensity is colour coded, ranging from turquoise to red.

Current satellite images for Marina del Rey, United States

The location marker is placed on Marina del Rey. [More]

The real-time satellite image combines visible light during daytime with infrared radiation during nighttime. At night, the image is not dark as infrared radiation can detect temperature differences. Unfortunately, low clouds and fog are difficult to distinguish from ground temperatures and thus can be almost invisible during the night. Meteosat satellite images for Europe are updated in real-time every 5 minutes. GOES-16/GOES-17 (North & South America) and Himawari (Asia) images update every 10 minutes.

Precipitation is estimated from radar and satellites. Precipitation estimates from satellites are less accurate at night than during daytime.

© 2024 meteoblue, NOAA Satellites GOES-16 and EUMETSAT. Lightning data provided by nowcast.

Back to top
×
Hey there,
seems like you are using an ad blocker.

Advertising is essential to maintain our free website with unique detail and accuracy.

Please whitelist www.meteoblue.com on your ad blocker or consider buying one of our products:

Already have a subscription?
Then please login.